When you browse on this site, cookies collect data to enhance your experience and personalize the content and advertising you see.
Visit our Privacy Policy to learn more. By continuing to use the site, you agree to this use of cookies and data.
  • Em Portugal
  • Lista de países
  • Para 7 dias
  • Temperatura da água
  • Mapas de satélite
  • Mapa do tempo
  • Widgets de tempo
  • user-avatar
    Iniciar Sessão

    Previsão horária em Holhol

    Hoje, 22 Maio, Quarta-feira

    Tempo Temperatura Precipitação Vento Pressão Humidade
    00:00 +29°C° 1.6 mm 4 m/s 714 mmHg 69%
    01:00 +29°C° 2.8 mm 4 m/s 713 mmHg 69%
    02:00 +29°C° 2.8 mm 3 m/s 713 mmHg 70%
    03:00 +29°C° 2.8 mm 3 m/s 713 mmHg 70%
    04:00 +29°C° 0.7 mm 3 m/s 713 mmHg 70%
    05:00 +29°C° 0.7 mm 2 m/s 713 mmHg 70%
    06:00 +29°C° 0.7 mm 2 m/s 713 mmHg 70%
    07:00 +29°C° 0.3 mm 2 m/s 714 mmHg 68%
    08:00 +30°C° 0.3 mm 3 m/s 714 mmHg 65%
    09:00 +30°C° 0.3 mm 3 m/s 714 mmHg 62%
    10:00 +32°C° 0.1 mm 4 m/s 714 mmHg 59%
    11:00 +33°C° 0.1 mm 4 m/s 714 mmHg 56%
    12:00 +34°C° 0.1 mm 4 m/s 714 mmHg 52%
    13:00 +34°C° 0.1 mm 5 m/s 714 mmHg 51%
    14:00 +34°C° 0.1 mm 5 m/s 713 mmHg 51%
    15:00 +35°C° 0.1 mm 5 m/s 713 mmHg 50%
    16:00 +34°C° 0 mm 5 m/s 712 mmHg 53%
    17:00 +33°C° 0 mm 4 m/s 712 mmHg 56%
    18:00 +33°C° 0 mm 4 m/s 712 mmHg 58%
    19:00 +31°C° 1 mm 3 m/s 712 mmHg 61%
    20:00 +31°C° 1 mm 3 m/s 713 mmHg 64%
    21:00 +30°C° 1 mm 2 m/s 713 mmHg 67%
    22:00 +30°C° 1.7 mm 2 m/s 713 mmHg 67%
    23:00 +30°C° 1.7 mm 2 m/s 713 mmHg 68%

    Amanhã, 23 Maio, Quinta-feira

    Tempo Temperatura Precipitação Vento Pressão Humidade
    00:00 +29°C° 1.7 mm 2 m/s 713 mmHg 68%
    01:00 +29°C° 1.3 mm 2 m/s 713 mmHg 69%
    02:00 +29°C° 1.3 mm 2 m/s 713 mmHg 69%
    03:00 +29°C° 1.3 mm 2 m/s 712 mmHg 69%
    04:00 +29°C° 0.7 mm 2 m/s 713 mmHg 69%
    05:00 +29°C° 0.7 mm 2 m/s 713 mmHg 68%
    06:00 +29°C° 0.7 mm 1 m/s 713 mmHg 68%
    07:00 +29°C° 0.6 mm 2 m/s 714 mmHg 65%
    08:00 +30°C° 0.6 mm 2 m/s 714 mmHg 62%
    09:00 +30°C° 0.6 mm 2 m/s 715 mmHg 59%
    10:00 +31°C° 0.5 mm 2 m/s 715 mmHg 57%
    11:00 +31°C° 0.5 mm 2 m/s 715 mmHg 54%
    12:00 +32°C° 0.5 mm 2 m/s 714 mmHg 52%
    13:00 +33°C° 0.1 mm 3 m/s 714 mmHg 51%
    14:00 +33°C° 0.1 mm 3 m/s 713 mmHg 51%
    15:00 +33°C° 0.1 mm 3 m/s 712 mmHg 50%
    16:00 +33°C° 0 mm 3 m/s 712 mmHg 51%
    17:00 +33°C° 0 mm 3 m/s 712 mmHg 52%
    18:00 +33°C° 0 mm 3 m/s 712 mmHg 54%
    19:00 +31°C° 0 mm 3 m/s 713 mmHg 55%
    20:00 +31°C° 0 mm 2 m/s 713 mmHg 56%
    21:00 +31°C° 0 mm 2 m/s 713 mmHg 57%
    22:00 +30°C° 0 mm 1 m/s 713 mmHg 58%
    23:00 +30°C° 0 mm 1 m/s 713 mmHg 59%

    Depois de amanhã, 24 Maio, Sexta-feira

    Tempo Temperatura Precipitação Vento Pressão Humidade
    00:00 +30°C° 0 mm 1 m/s 713 mmHg 60%
    01:00 +30°C° 0 mm 1 m/s 713 mmHg 60%
    02:00 +30°C° 0 mm 1 m/s 713 mmHg 61%
    03:00 +29°C° 0 mm 1 m/s 713 mmHg 62%
    04:00 +29°C° 0 mm 1 m/s 713 mmHg 63%
    05:00 +29°C° 0 mm 1 m/s 713 mmHg 64%
    06:00 +29°C° 0 mm 1 m/s 713 mmHg 66%
    07:00 +30°C° 0 mm 2 m/s 714 mmHg 62%
    08:00 +31°C° 0 mm 2 m/s 714 mmHg 58%
    09:00 +33°C° 0 mm 3 m/s 715 mmHg 54%
    10:00 +34°C° 0 mm 3 m/s 715 mmHg 49%
    11:00 +35°C° 0 mm 4 m/s 715 mmHg 45%
    12:00 +36°C° 0 mm 4 m/s 714 mmHg 41%
    13:00 +36°C° 0 mm 5 m/s 714 mmHg 41%
    14:00 +36°C° 0 mm 5 m/s 713 mmHg 41%
    15:00 +36°C° 0 mm 5 m/s 712 mmHg 41%
    16:00 +35°C° 0 mm 5 m/s 712 mmHg 45%
    17:00 +34°C° 0 mm 5 m/s 712 mmHg 49%
    18:00 +33°C° 0 mm 5 m/s 712 mmHg 53%
    19:00 +33°C° 0 mm 4 m/s 712 mmHg 55%
    20:00 +31°C° 0 mm 3 m/s 712 mmHg 58%
    21:00 +31°C° 0 mm 2 m/s 713 mmHg 60%
    22:00 +31°C° 0 mm 2 m/s 713 mmHg 60%
    23:00 +31°C° 0 mm 3 m/s 713 mmHg 60%

    25 Maio, Sábado

    Tempo Temperatura Precipitação Vento Pressão Humidade
    00:00 +30°C° 0 mm 3 m/s 713 mmHg 60%
    01:00 +30°C° 0 mm 2 m/s 713 mmHg 61%
    02:00 +30°C° 0 mm 2 m/s 712 mmHg 62%
    03:00 +30°C° 0 mm 2 m/s 712 mmHg 63%
    04:00 +29°C° 0 mm 2 m/s 712 mmHg 64%
    05:00 +29°C° 0 mm 1 m/s 713 mmHg 65%
    06:00 +29°C° 0 mm 1 m/s 713 mmHg 66%
    07:00 +30°C° 0 mm 2 m/s 713 mmHg 60%
    08:00 +31°C° 0 mm 3 m/s 714 mmHg 53%
    09:00 +33°C° 0 mm 3 m/s 715 mmHg 47%
    10:00 +34°C° 0 mm 3 m/s 714 mmHg 43%
    11:00 +36°C° 0 mm 4 m/s 714 mmHg 39%
    12:00 +37°C° 0 mm 4 m/s 714 mmHg 35%
    13:00 +37°C° 0 mm 4 m/s 713 mmHg 35%
    14:00 +37°C° 0 mm 5 m/s 712 mmHg 36%
    15:00 +37°C° 0 mm 5 m/s 712 mmHg 36%
    16:00 +36°C° 0 mm 5 m/s 711 mmHg 39%
    17:00 +35°C° 0 mm 4 m/s 711 mmHg 42%
    18:00 +35°C° 0 mm 4 m/s 711 mmHg 45%
    19:00 +34°C° 0 mm 3 m/s 712 mmHg 46%
    20:00 +32°C° 0 mm 2 m/s 712 mmHg 48%
    21:00 +31°C° 0 mm 1 m/s 712 mmHg 49%
    22:00 +31°C° 0 mm 1 m/s 712 mmHg 51%
    23:00 +31°C° 0 mm 1 m/s 712 mmHg 52%

    26 Maio, Domingo

    Tempo Temperatura Precipitação Vento Pressão Humidade
    00:00 +31°C° 0 mm 1 m/s 712 mmHg 54%
    01:00 +30°C° 0 mm 1 m/s 711 mmHg 55%
    02:00 +30°C° 0 mm 1 m/s 711 mmHg 57%
    03:00 +29°C° 0 mm 1 m/s 710 mmHg 59%
    04:00 +29°C° 0 mm 1 m/s 711 mmHg 60%
    05:00 +29°C° 0 mm 1 m/s 711 mmHg 62%
    06:00 +29°C° 0 mm 1 m/s 712 mmHg 63%
    07:00 +30°C° 0 mm 1 m/s 712 mmHg 58%
    08:00 +31°C° 0 mm 2 m/s 713 mmHg 53%
    09:00 +32°C° 0 mm 2 m/s 713 mmHg 48%
    10:00 +34°C° 0 mm 3 m/s 713 mmHg 44%
    11:00 +35°C° 0 mm 3 m/s 713 mmHg 39%
    12:00 +37°C° 0 mm 4 m/s 712 mmHg 35%
    13:00 +37°C° 0 mm 4 m/s 712 mmHg 34%
    14:00 +37°C° 0 mm 5 m/s 711 mmHg 33%
    15:00 +39°C° 0 mm 5 m/s 710 mmHg 32%
    16:00 +37°C° 0 mm 5 m/s 710 mmHg 34%
    17:00 +36°C° 0 mm 4 m/s 710 mmHg 36%
    18:00 +35°C° 0 mm 4 m/s 710 mmHg 38%
    19:00 +34°C° 0 mm 3 m/s 711 mmHg 40%
    20:00 +34°C° 0 mm 2 m/s 711 mmHg 42%
    21:00 +32°C° 0 mm 1 m/s 711 mmHg 43%
    22:00 +32°C° 0 mm 1 m/s 711 mmHg 45%
    23:00 +31°C° 0 mm 1 m/s 711 mmHg 47%

    27 Maio, Segunda-feira

    Tempo Temperatura Precipitação Vento Pressão Humidade
    00:00 +31°C° 0 mm 1 m/s 711 mmHg 49%
    01:00 +31°C° 0 mm 1 m/s 710 mmHg 51%
    02:00 +30°C° 0 mm 1 m/s 710 mmHg 53%
    03:00 +30°C° 0 mm 1 m/s 710 mmHg 55%
    04:00 +29°C° 0 mm 1 m/s 710 mmHg 56%
    05:00 +29°C° 0 mm 1 m/s 711 mmHg 57%
    06:00 +29°C° 0 mm 1 m/s 711 mmHg 59%
    07:00 +30°C° 0 mm 1 m/s 712 mmHg 53%
    08:00 +32°C° 0 mm 2 m/s 712 mmHg 47%
    09:00 +34°C° 0 mm 2 m/s 713 mmHg 41%
    10:00 +35°C° 0 mm 3 m/s 713 mmHg 37%
    11:00 +36°C° 0 mm 3 m/s 712 mmHg 34%
    12:00 +38°C° 0 mm 4 m/s 712 mmHg 31%
    13:00 +39°C° 0 mm 5 m/s 711 mmHg 30%
    14:00 +39°C° 0 mm 5 m/s 711 mmHg 30%
    15:00 +39°C° 0 mm 5 m/s 710 mmHg 30%
    16:00 +37°C° 0 mm 5 m/s 710 mmHg 32%
    17:00 +37°C° 0 mm 4 m/s 710 mmHg 34%
    18:00 +36°C° 0 mm 4 m/s 710 mmHg 36%
    19:00 +35°C° 0 mm 3 m/s 711 mmHg 38%
    20:00 +34°C° 0 mm 3 m/s 711 mmHg 40%
    21:00 +34°C° 0 mm 2 m/s 711 mmHg 43%
    22:00 +32°C° 0 mm 2 m/s 711 mmHg 45%
    23:00 +32°C° 0 mm 1 m/s 711 mmHg 47%
    Mostrar mais